Location: Bidart
(43.4376°N, 1.5913°W)
Time: 19:15:42
(UTC+00:00)

ISS - Pass Details

Date: 19 May 2025
Orbit: 415 x 417 km, 51.6° (Epoch: 23 June)

Event Time Altitude Azimuth Distance (km) Brightness Sun altitude
Rises 23:22:07 0° 298° (WNW) 2,358 0.6 -25.9°
Reaches altitude 10° 23:24:17 10° 291° (WNW) 1,491 -0.6 -26.0°
Enters shadow 23:24:31 12° 290° (WNW) 1,399 -0.8 -26.0°
